sat.trackr.live / text

‹ back to catalog

STARLINK-32480

NORAD 62039 · 2024-216H

PAYLOAD ACTIVE UNKNOWN

§ Identity

Operator
Country
US
Launch date
2024-11-21
Launch site
AFETR
Launch vehicle
Mass (kg)
RCS (m²)

Purposes: comms

External: N2YO · Heavens-Above · Gunter

§ Orbital elements

Epoch: 2026-09-21T21:59:49.014528Z

Period
94.27 min
Inclination
42.9984°
Eccentricity
0.0001373
Mean motion
15.27585619 rev/d
Perigee alt
482.1 km
Apogee alt
484.0 km
Semi-major
6,861.2 km
B*
6.6539e-4
RAAN
228.3384°
Arg perigee
264.4498°
Mean anomaly
95.6197°
Rev number
10,272

§ Raw data

STARLINK-324801 62039U 24216H   26264.91653952  .00018096  00000+0  66539-3 0  99902 62039  42.9984 228.3384 0001373 264.4498  95.6197 15.27585619102727

JSON: /api/v1/satellites/62039 · /tle

For live sub-satellite position, see the globe view (requires WebGL).

§ Visibility from observer

Set your observer location to see the next 7 days of passes ≥ 10°. The values pass through the URL so the page stays shareable.

No JS? Fill the form by hand. The geolocation button needs JavaScript.